Home   Weather   Copenhagen   Past weeks
Flag for South Africa

Past Weather in Copenhagen, South Africa — Yesterday and Last 2 Weeks

Now
82 °F

Passing clouds.


Feels Like: 81 °F
Forecast: 71 / 60 °F
Wind: 10 mph from North

Location: Bloemfontein Airport

Current Time: Dec 8, 2019 at 6:28:12 pm

Latest Report: Dec 8, 2019 at 6:00 pm


Visibility: N/A

Pressure: 29.83 "Hg

Humidity: 35%

Dew Point: 52 °F

Location of CopenhagenLocation

Past Weather in Copenhagen — Graph

°F

Copenhagen Temperature Yesterday

Maximum temperature yesterday: 79 °F (at 2:00 pm)
Minimum temperature yesterday: 59 °F (at 12:00 am)
Average temperature yesterday: 67 °F

High & Low Weather Summary for the Past Weeks

 TemperatureHumidityPressure
High99 °F (Nov 28, 3:00 pm)94% (Dec 3, 3:00 pm)30.30 "Hg (Dec 3, 3:00 pm)
Low50 °F (Dec 4, 4:00 am)3% (Nov 26, 2:00 pm)29.80 "Hg (Dec 8, 5:00 pm)
Average74 °F38%30.09 "Hg
* Reported Nov 23 5:00 pm — Dec 8 5:00 pm, Copenhagen. Weather by CustomWeather, © 2019

Note: Actual official high and low records may vary slightly from our data, if they occured in-between our weather recording intervals... More about our weather records

Copenhagen Weather History for the Previous 24 Hours

Scroll right to see more
 ConditionsComfort  
Time TempWeatherWind HumidityBarometerVisibility
5:00 pm
Sun, Dec 8
82 °FScattered clouds.8 mph32%29.80 "HgN/A
4:00 pm82 °FScattered clouds.9 mph32%29.83 "HgN/A
3:00 pm86 °FScattered clouds.9 mph27%29.83 "HgN/A
2:00 pm84 °FScattered clouds.7 mph29%29.86 "HgN/A
1:00 pm82 °FPassing clouds.10 mph30%29.89 "HgN/A
12:00 pm81 °FPassing clouds.12 mph32%29.95 "HgN/A
11:00 am79 °FPassing clouds.10 mph34%29.98 "HgN/A
10:00 am77 °FPassing clouds.13 mph39%29.98 "HgN/A
9:22 am77 °FPassing clouds.14 mph42%29.98 "HgN/A
9:00 am73 °FPassing clouds.13 mph50%29.98 "HgN/A
8:40 am73 °FSunny.12 mph53%29.98 "Hg10 mi
8:00 am68 °FSunny.9 mph56%29.98 "Hg10 mi
7:00 am64 °FSunny.9 mph64%30.01 "Hg10 mi
6:00 am59 °FPassing clouds.5 mph77%30.01 "HgN/A
5:00 am59 °FClear.5 mph77%29.98 "Hg10 mi
4:00 am57 °FCool.3 mph82%29.98 "HgN/A
3:00 am55 °FCool.5 mph82%29.98 "HgN/A
2:00 am57 °FCool.3 mph77%30.01 "HgN/A
1:00 am59 °FCool.3 mph72%30.01 "HgN/A
12:00 am59 °FCool.3 mph72%30.04 "HgN/A
11:00 pm
Sat, Dec 7
61 °FCool.6 mph68%30.04 "HgN/A
10:00 pm63 °FMild.5 mph59%30.04 "HgN/A
9:00 pm66 °FMild.13 mph52%29.98 "HgN/A
8:00 pm68 °FClear.9 mph46%29.98 "Hg10 mi
7:00 pm73 °FSunny.15 mph41%29.98 "Hg10 mi
6:00 pm77 °FPassing clouds.15 mph39%29.95 "HgN/A
Weather by CustomWeather, © 2019

See weather overview

Advertising